Lexington Weather

Lexington, Massachusetts, USA

45°F
4/22/2024 9:35am 
  • Lexington Conditions: Clear
  • Temperature: 44.8°F / 7.1°CWarmer 2.2°F than last hour.
  • Dew Point: 25.3°FDecreased 1.8°Fsince last hour.
  • Relative Humidity: 46%Decreased 8.0% since last hour.
  • Wind: Calm, 10-min avg: Calm, gust: 1 mph
  • Barometer: 29.97 inRising 0.02  inHg/hr Rising Slowly
  • Visibility: 10 miles
  • Rain Today: 0.00 in
  •   

Regional Weather Roundup
for Boston, MA

        
000
ASUS41 KBOX 152210
RWRBOX

REGIONAL WEATHER ROUNDUP
NATIONAL WEATHER SERVICE BOSTON/NORTON MA
600 PM EDT MON APR 15 2024

NOTE:  "FAIR" INDICATES FEW OR NO CLOUDS BELOW 12,000 FEET WITH NO 
SIGNIFICANT WEATHER AND/OR OBSTRUCTIONS TO VISIBILITY.

MAZALL-152300-
EASTERN MASSACHUSETTS
  
CITY           SKY/WX    TMP DP  RH WIND       PRES   REMARKS
BOSTON         MOSUNNY   68  38  33 NW23G30   29.82R                  
BEVERLY        PTSUNNY   65  33  30 W18G31    29.80R                  
LAWRENCE       SUNNY     65  31  28 W17G25    29.83R                  
BEDFORD        PTSUNNY   66  35  31 NW21G28   29.82R                  
NORWOOD        PTSUNNY   68  40  35 NW16G26   29.82R                  
MARSHFIELD     MOSUNNY   57  46  67 E6        29.81R                  
PLYMOUTH       PTSUNNY   69  49  48 SW7       29.78R                  
TAUNTON        PTSUNNY   74  42  31 W7        29.79R                  
NEW BEDFORD    MOSUNNY   66  50  56 SW9       29.80R                  
$$

MAZALL-152300-
CAPE COD AND THE ISLANDS
  
CITY           SKY/WX    TMP DP  RH WIND       PRES   REMARKS
FALMOUTH       SUNNY     66  46  48 W16G28    29.77S                  
HYANNIS        SUNNY     59  49  69 SW15      29.79R                  
CHATHAM        SUNNY     54  48  80 S6        29.82R                  
PROVINCETOWN   SUNNY     62  50  64 S8G17     29.82R                  
NANTUCKET      SUNNY     51  46  83 S7        29.83R                  
MARTHAS VNYRD  SUNNY     59  50  72 SW10      29.81R                  
$$
 
MAZALL-152300-
CENTRAL AND WESTERN MASSACHUSETTS
  
CITY           SKY/WX    TMP DP  RH WIND       PRES   REMARKS
WORCESTER      SUNNY     63  35  35 NW15G25   29.84R                  
FITCHBURG      SUNNY     64  34  32 W17G31    29.85R                  
ORANGE         MOSUNNY   62  34  35 W9G22     29.87R                  
SPRINGFIELD    MOSUNNY   66  36  33 N12       29.82R                  
WESTFIELD      SUNNY     66  37  34 NW14      29.85R                  
NORTH ADAMS    MOSUNNY   59  34  39 W15G25    29.89R                  
PITTSFIELD     SUNNY     57  36  45 NW14G28   29.87R                  
$$
 
RIZALL-152300-
RHODE ISLAND
  
CITY           SKY/WX    TMP DP  RH WIND       PRES   REMARKS
PROVIDENCE     MOSUNNY   74  40  29 NW13G22   29.79R                  
NEWPORT        SUNNY     60  51  72 SW10G21   29.80R                  
BLOCK ISLAND   SUNNY     59  50  72 SW20      29.82R                  
SMITHFIELD     SUNNY     67  43  41 N14       29.82R                  
WESTERLY       SUNNY     64  49  57 SW9G21    29.81R                  
$$
 
CTZALL-152300-
CONNECTICUT
  
CITY           SKY/WX    TMP DP  RH WIND       PRES   REMARKS
BRADLEY INTL   MOSUNNY   70  40  33 N14       29.84R                  
HARTFORD       SUNNY     70  41  34 NW8G23    29.81R                  
PLAINVILLE     FAIR      69  40  34 NW9G16    29.82R                  
BRIDGEPORT     PTSUNNY   68  46  45 S12       29.79R                  
DANBURY        SUNNY     74  41  30 VRB7      29.82R                  
GROTON         PTSUNNY   62  50  64 SW6       29.80R                  
NEW HAVEN      PTSUNNY   78  41  26 VRB5      29.79R                  
CHESTER        MOSUNNY   75  39  27 N8G17     29.81R                  
MERIDEN        SUNNY     72  41  32 N13G21    29.81R                  
WILLIMANTIC    SUNNY     70  42  36 NW9G20    29.84R                  
OXFORD         MOSUNNY   68  44  42 N13       29.83R                  
$$

MEZ002-015-021-024-NHZ003-005-008-011-012-014-VTZ005-008-152300-
NORTHERN NEW ENGLAND
  
CITY           SKY/WX    TMP DP  RH WIND       PRES   REMARKS
PORTLAND ME    CLOUDY    56  44  64 W5        29.83R                  
BANGOR ME      PTSUNNY   59  35  40 W9        29.78R                  
CONCORD NH     PTSUNNY   55  42  61 NW13      29.87R                  
MANCHESTER NH  MOSUNNY   62  39  42 NW16      29.84R                  
NASHUA NH      MOSUNNY   65  31  28 W13G25    29.85R                  
PORTSMOUTH NH  MOSUNNY   61  41  47 NW20      29.82R                  
JAFFREY NH     MOSUNNY   61  30  31 W10G24    29.86R                  
KEENE NH       PTSUNNY   59  42  53 N12       29.87R                  
BURLINGTON VT  MOSUNNY   57  32  38 N6        29.88R                  
MT. WASHINGTON BLWGSNOW  25  25 100 W45         N/A  VSB 0   WCI   5  
$$

NYZ052-076-152300-
EASTERN NEW YORK
  
CITY           SKY/WX    TMP DP  RH WIND       PRES   REMARKS
ALBANY         PTSUNNY   60  33  36 NW16G23   29.91R                  
NEW YORK CITY  PTSUNNY   76  43  30 W9        29.79R                  
$$
 
ANZALL-152300-
MARINE OBSERVATIONS
  
STATION/POSITION TIME  TEMP    WIND        PRES    VSBY  WAVE
                       AIR SEA DIR/SP/G                  HT/PER
                 (UTC) (F)     (DEG/KT/KT) (MB)    (MI)  (FT/S)
BOSTON BUOY      2150   54     130/  2/ 14 1009.0R         3/11
BUZZARDS BAY     2100   50     220/ 13/ 14 1009.3R
NANTUCKET SOUND  2150   50 47  210/ 10/ 10 1009.0R         1/ 9
MASS BAY-STELLWA 2004   50 46  170/  8/ 10 1007.6S  1 7/8  3/11
ISLE OF SHOALS   2100   58     300/ 15/ 17 1007.9R
S OF BLOCK IS    2156      45                N/A           6/ 8
$$

......................KEY.........................
  SKY/WX - SKY CONDITION/PRESENT WEATHER
  TMP    - TEMPERATURE IN FAHRENHEIT
  DWPT   - DEWPOINT IN FAHRENHEIT
  RH     - RELATIVE HUMIDITY IN PERCENT
  WIND   - DIRECTION AND SPEED IN MPH
  PRES   - MEAN SEA LEVEL PRESSURE IN INCHES OF HG
  WCI    - WIND CHILL INDEX
  VSB    - VISIBILITY IN MILES
  HX     - HEAT INDEX
  TC     - TEMPERATURE IN CELSIUS
  VRB    - VARIABLE WIND DIRECTION
  N/A    - NOT AVAILABLE
  
      

Other recent Regional Weather Roundups

Mon Apr 22, 9:10am EDT

Mon Apr 22, 8:10am EDT

Mon Apr 22, 7:10am EDT

Mon Apr 22, 6:10am EDT

Mon Apr 22, 5:10am EDT

Mon Apr 22, 4:10am EDT

Mon Apr 22, 3:10am EDT

Mon Apr 22, 2:10am EDT

Mon Apr 22, 1:10am EDT

Mon Apr 22, 12:10am EDT

Sun Apr 21, 11:10pm EDT

Sun Apr 21, 10:10pm EDT

Sun Apr 21, 9:10pm EDT

Sun Apr 21, 8:10pm EDT

Sun Apr 21, 7:10pm EDT

Sun Apr 21, 6:10pm EDT

Sun Apr 21, 5:10pm EDT

Sun Apr 21, 4:10pm EDT

Sun Apr 21, 3:10pm EDT

Sun Apr 21, 2:10pm EDT

Sun Apr 21, 1:10pm EDT

Sun Apr 21, 12:10pm EDT

Sun Apr 21, 11:10am EDT

Sun Apr 21, 10:10am EDT

Sun Apr 21, 9:10am EDT

Sun Apr 21, 8:10am EDT

Sun Apr 21, 7:10am EDT

Sun Apr 21, 6:10am EDT

Sun Apr 21, 5:10am EDT

Sun Apr 21, 4:10am EDT

Sun Apr 21, 3:10am EDT

Sun Apr 21, 2:10am EDT

Sun Apr 21, 1:10am EDT

Sun Apr 21, 12:10am EDT

Sat Apr 20, 11:10pm EDT

Sat Apr 20, 10:10pm EDT

Sat Apr 20, 9:10pm EDT

Sat Apr 20, 8:10pm EDT

Sat Apr 20, 7:10pm EDT

Sat Apr 20, 6:10pm EDT

Sat Apr 20, 5:10pm EDT

Sat Apr 20, 4:10pm EDT

Sat Apr 20, 3:10pm EDT

Sat Apr 20, 2:10pm EDT

Sat Apr 20, 1:10pm EDT

Sat Apr 20, 12:10pm EDT

Sat Apr 20, 11:10am EDT

Sat Apr 20, 10:10am EDT

Sat Apr 20, 9:10am EDT

Sat Apr 20, 8:10am EDT

Sat Apr 20, 7:10am EDT

Sat Apr 20, 6:10am EDT

Sat Apr 20, 5:10am EDT

Sat Apr 20, 4:10am EDT

Sat Apr 20, 3:10am EDT

Sat Apr 20, 2:10am EDT

Sat Apr 20, 1:10am EDT

Sat Apr 20, 12:10am EDT

Fri Apr 19, 11:10pm EDT

Fri Apr 19, 10:10pm EDT

Fri Apr 19, 9:10pm EDT

Fri Apr 19, 8:10pm EDT

Fri Apr 19, 7:10pm EDT

Fri Apr 19, 6:10pm EDT

Fri Apr 19, 5:10pm EDT

Fri Apr 19, 4:10pm EDT

Fri Apr 19, 3:10pm EDT

Fri Apr 19, 2:10pm EDT

Fri Apr 19, 1:10pm EDT

Fri Apr 19, 12:10pm EDT

Fri Apr 19, 11:10am EDT

Fri Apr 19, 10:10am EDT

Fri Apr 19, 9:10am EDT

Fri Apr 19, 8:10am EDT

Fri Apr 19, 7:10am EDT

Fri Apr 19, 6:10am EDT

Fri Apr 19, 5:10am EDT

Fri Apr 19, 4:10am EDT

Fri Apr 19, 3:10am EDT

Fri Apr 19, 2:10am EDT

Fri Apr 19, 1:10am EDT

Fri Apr 19, 12:10am EDT

Thu Apr 18, 11:10pm EDT

Thu Apr 18, 10:10pm EDT

Thu Apr 18, 9:10pm EDT

Thu Apr 18, 8:10pm EDT

Thu Apr 18, 7:10pm EDT

Thu Apr 18, 6:10pm EDT

Thu Apr 18, 5:10pm EDT

Thu Apr 18, 4:10pm EDT

Thu Apr 18, 3:10pm EDT

Thu Apr 18, 2:10pm EDT

Thu Apr 18, 1:10pm EDT

Thu Apr 18, 12:10pm EDT

Thu Apr 18, 11:10am EDT

Thu Apr 18, 10:10am EDT

Thu Apr 18, 9:10am EDT

Thu Apr 18, 8:10am EDT

Thu Apr 18, 7:10am EDT

Thu Apr 18, 6:10am EDT

Thu Apr 18, 5:10am EDT

Thu Apr 18, 4:10am EDT

Thu Apr 18, 3:10am EDT

Thu Apr 18, 2:10am EDT

Thu Apr 18, 1:10am EDT

Thu Apr 18, 12:10am EDT

Wed Apr 17, 11:10pm EDT

Wed Apr 17, 10:10pm EDT

Wed Apr 17, 9:10pm EDT

Wed Apr 17, 8:10pm EDT

Wed Apr 17, 7:10pm EDT

Wed Apr 17, 6:10pm EDT

Wed Apr 17, 5:10pm EDT

Wed Apr 17, 4:10pm EDT

Wed Apr 17, 3:10pm EDT

Wed Apr 17, 2:10pm EDT

Wed Apr 17, 1:10pm EDT

Wed Apr 17, 12:10pm EDT

Wed Apr 17, 11:10am EDT

Wed Apr 17, 10:10am EDT

Wed Apr 17, 9:10am EDT

Wed Apr 17, 8:10am EDT

Wed Apr 17, 7:10am EDT

Wed Apr 17, 6:10am EDT

Wed Apr 17, 5:10am EDT

Wed Apr 17, 4:10am EDT

Wed Apr 17, 3:10am EDT

Wed Apr 17, 2:10am EDT

Wed Apr 17, 1:10am EDT

Wed Apr 17, 12:10am EDT

Tue Apr 16, 11:10pm EDT

Tue Apr 16, 10:10pm EDT

Tue Apr 16, 9:10pm EDT

Tue Apr 16, 8:10pm EDT

Tue Apr 16, 7:10pm EDT

Tue Apr 16, 6:10pm EDT

Tue Apr 16, 5:10pm EDT

Tue Apr 16, 4:10pm EDT

Tue Apr 16, 3:10pm EDT

Tue Apr 16, 2:10pm EDT

Tue Apr 16, 1:10pm EDT

Tue Apr 16, 12:10pm EDT

Tue Apr 16, 11:10am EDT

Tue Apr 16, 10:10am EDT

Tue Apr 16, 9:10am EDT

Tue Apr 16, 8:10am EDT

Tue Apr 16, 7:10am EDT

Tue Apr 16, 6:10am EDT

Tue Apr 16, 5:10am EDT

Tue Apr 16, 4:10am EDT

Tue Apr 16, 3:10am EDT

Tue Apr 16, 2:10am EDT

Tue Apr 16, 1:10am EDT

Tue Apr 16, 12:10am EDT

Mon Apr 15, 11:10pm EDT

Mon Apr 15, 10:10pm EDT

Mon Apr 15, 9:10pm EDT

Mon Apr 15, 8:10pm EDT

Mon Apr 15, 7:10pm EDT

Mon Apr 15, 5:10pm EDT

Mon Apr 15, 4:10pm EDT

Mon Apr 15, 3:10pm EDT

Mon Apr 15, 2:10pm EDT

Mon Apr 15, 1:10pm EDT

Mon Apr 15, 12:10pm EDT

Mon Apr 15, 11:10am EDT

Mon Apr 15, 10:10am EDT